Retour au catalogue

STARLINK-34903

ActifCommunicationsVLEO
NORAD 65372·PAYLOAD·🇺🇸 United States

Lancé Aug 28, 2025 depuis Cape Canaveral Space Force Station

Loading…

Prochains Passages (prochaines 24 heures)

TLE

FraisSource: CelesTrak SupGP

Époque: Sep 14, 2026, 21:18 UTC

1 65372C 25190X   26257.88798611  .00011610  00000+0  34303-3 0  2571
2 65372  53.1590   7.6053 0001074  85.7096  42.0129 15.34385315    13

Suivez STARLINK-34903 en temps réel avec AllMySat

Download on the App Store